Powrót do katalogu

COSMOS 1275 DEB

AktywnyPO
NORAD 39941·DEBRIS·🇷🇺 Russia

Wystrzelony Jun 4, 1981 z Plesetsk Cosmodrome

Loading…

Następne Przeloty (najbliższe 24 godziny)

TLE

Starzejące sięSource: Space-Track

Epoka: Sep 9, 2026, 18:36 UTC

1 39941U 81053NB  26252.77505507  .00000925  00000-0  74891-3 0  9994
2 39941  83.0137  80.2443 0097072 289.5565  69.5136 13.87092724618992

Śledź COSMOS 1275 DEB w czasie rzeczywistym z AllMySat

Download on the App Store